STARLINK-5008 (53927 NORAD) Tracking and Keplerian Element Data

This shows tracking and keplerian element data for the satellite.

Feedback or suggestion? Click here.




ElementValue
Catalog53927
NameSTARLINK-5008
Epoch Orbit130
Epoch Day324.91667824
Epoch Year2022
RAAN331.1318
Inclination53.2141
Eccentricity0.0003946
Argument of Perigee358.7948
Mean Anonmoly22.5612
Mean Motion15.73121005
Decay Rate0.00085374
L11 53927U 22119AT 22324.91667824 .00085374 00000+0 60841-3 0 9995
L22 53927 53.2141 331.1318 0003946 358.7948 22.5612 15.73121005 1307



Live tracking and technical data element details for STARLINK-5008 (NORAD 53927). STARLINK-5008 can be tracked NOW for your location showing map with azimuth and elevation plus other details from your city location.







IsCatalogInMostPopularTable: catalog: 53927, numindb: 1
Update: records affected: 1



GetName: 53927 STARLINK-5008

Hit Count: updated at: Mon, 28 Nov 2022 21:02:34 GMT